GLOBALSTAR M046 [-]

Last updated on Fri Dec 29 2023 00:02:56 GMT+0000 (Coordinated Universal Time)

1 25651U 99012C 23361.89506307 -.00000115 00000+0 -28572-3 0 9998 2 25651 52.0060 281.2208 0001507 273.6609 190.3222 12.09381938118657

Satellite not in orbit

GLOBALSTAR M046 [-]